SL-8 DEB, 1335

Orbit data source: Space-Track

SL-8 DEB, 1335 is space debris in LEO originally from a launch on Mon, 15 Mar 1965 UTC launched from the Tyuratam Missile And Space Complex (TTMTR). Debris objects in space refer to the collection of defunct objects orbiting the Earth. Examples of debris include non-operational satellites, rocket bodies, and fragments generated from explosions, collisions, or faulty payload assembly.

Loading next visibility...
Identifier
1335, 1965-020E
Orbit
LEO
Country
Flag of CISCIS
Related business
Manufacturer
Unknown
Mission
Spacecraft
Bus & Motor
Unknown
Mass
Unknown
Launch date (UTC)
1965-03-15 (61 years ago)
Launch vehicle
Unknown
Launch site
Tyuratam Missile And Space Complex (TTMTR)
Object type
Payload
Rocket body
Debris
Shape & HBR
Unknown shape, 0.1 m
Radar Cross Section
Medium (>0.1 m² and <1 m²)

Expand to show TLE details & history
Last TLE update: 20 hours ago

TLE from 20 hours ago
0 SL-8 DEB
1 01335U 65020E   26036.95824492  .00005128  00000-0  14866-2 0  9998
2 01335  56.0772  57.5207 0524488 279.8962  74.3213 13.87135762991777
Epoch: 2026-02-05T22:59Z
TLE epoch observation values (Epoch: 2026-02-05T22:59:52.361Z)
Latitude
-0°
Longitude
-63.55048°
Altitude
855.144 km
Speed
7.469 km/s
True Right ascension
03h 50m 04s
True Declination
0° 00' 00"
Sunlit
Object was in daylight at epoch
Visualization orbit readout
Latitude
Unknown
Longitude
Unknown
Altitude
Unknown
Speed
Unknown
Apparent Right ascension
Unknown
Apparent Declination
Unknown
Sunlit
N/A
Visualization observer readout
Local Sidereal Time
20:56:56
Azimuth
Unknown
Elevation
Unknown
Doppler factor
Unknown
Orbital elements
Apogee altitude
1,322.24 km
Perigee altitude
554.743 km
Semi-major axis
7,316.629 km
Eccentricity
0.05245
Inclination
56.0772°
RAAN
57.5207°
Arg. of periapsis
279.8962°
True anomaly
80.2018°
Mean anomaly
74.3213°
Eccentric anomaly
77.25232°
Mean motion
3.46798 °/min
Orbital period
103.81 mins
BSTAR
0.0014866
Loading maneuver chart data...
Computing Atmospheric mass density...
Loading historical data...
Loading historical data...
Loading historical data...
Loading historical data...
Loading historical data...
Loading historical data...
Loading historical data...

Documentation

Showing up to 5 results
|